PST,Max TemperatureF,Mean TemperatureF,Min TemperatureF,Max Dew PointF,MeanDew PointF,Min DewpointF,Max Humidity, Mean Humidity, Min Humidity, Max Sea Level PressureIn, Mean Sea Level PressureIn, Min Sea Level PressureIn, Max VisibilityMiles, Mean VisibilityMiles, Min VisibilityMiles, Max Wind SpeedMPH, Mean Wind SpeedMPH, Max Gust SpeedMPH,PrecipitationIn, CloudCover, Events, WindDirDegrees
2011-11-1,73,62,51,47,22,5,77,43,8,30.10,30.04,30.00,10,10,10,30,12,40,0.00,0,,35
2011-11-2,75,62,48,29,18,7,46,29,11,30.14,30.06,30.00,10,10,10,16,6,21,0.00,0,,87
2011-11-3,65,53,40,47,40,28,86,65,44,30.00,29.88,29.82,10,10,8,25,9,29,0.05,4,Rain,253
2011-11-4,59,49,39,44,40,33,93,67,40,29.93,29.87,29.82,10,9,4,15,4,20,0.16,4,Rain,315
2011-11-5,56,46,36,47,41,35,92,74,55,30.03,29.95,29.88,10,10,5,15,5,22,0.19,5,Rain,207
2011-11-6,59,51,42,46,44,38,100,74,47,30.12,30.00,29.91,10,10,4,13,3,16,0.00,4,,271
2011-11-7,62,50,37,44,40,37,100,71,42,30.27,30.22,30.14,10,10,2,14,2,16,0.00,1,Fog,202
2011-11-8,61,48,34,43,38,34,92,67,42,30.33,30.29,30.25,10,10,9,15,4,18,0.00,0,Fog,71
2011-11-9,62,49,36,43,39,34,92,72,51,30.29,30.23,30.15,10,7,2,15,5,20,0.00,1,,56
2011-11-10,66,51,35,43,39,33,92,66,40,30.17,30.06,29.91,8,6,5,13,4,16,0.00,0,,47
2011-11-11,59,50,41,49,44,37,93,73,53,29.88,29.79,29.74,10,9,6,17,4,25,0.02,6,Rain,153
2011-11-12,62,54,45,50,48,42,93,77,60,29.98,29.87,29.81,10,7,2,9,3,13,T,6,,67
2011-11-13,68,56,43,49,46,41,96,72,48,30.01,29.97,29.93,10,9,6,12,2,16,0.00,1,,3
2011-11-14,65,55,44,48,46,41,93,73,52,30.08,30.01,29.97,10,9,5,14,4,16,0.00,4,,216
2011-11-15,69,54,39,46,42,38,96,67,37,30.17,30.13,30.09,10,9,5,7,1,9,0.00,0,,245
2011-11-16,71,55,38,46,41,37,86,59,31,30.24,30.19,30.15,10,10,10,10,2,12,0.00,0,,295
2011-11-17,62,53,43,54,48,41,100,82,64,30.21,30.14,30.06,10,6,0,15,6,17,0.00,7,Fog,227
2011-11-18,58,52,46,47,45,43,93,77,61,30.06,30.00,29.95,10,10,8,18,6,22,0.02,6,Rain,232
2011-11-19,57,48,38,44,39,33,96,70,43,29.99,29.91,29.71,10,9,2,14,3,17,0.15,4,Rain,191
2011-11-20,57,51,45,47,44,41,93,75,57,30.02,29.86,29.70,10,9,2,14,6,18,0.20,6,Rain,52
2011-11-21,60,51,42,45,44,39,93,72,51,30.26,30.15,30.01,10,10,6,8,2,12,0.00,5,,15
2011-11-22,62,50,37,45,40,37,93,71,48,30.30,30.22,30.09,10,10,8,6,1,8,0.00,1,Fog,56
2011-11-23,61,50,39,44,41,37,92,72,51,30.07,29.93,29.84,10,10,10,16,3,20,0.00,2,,132
2011-11-24,58,52,45,52,46,42,86,79,72,30.24,30.07,29.85,10,10,10,16,4,20,0.03,6,Rain,227
2011-11-25,62,52,42,51,46,41,96,82,67,30.38,30.32,30.24,10,10,10,12,4,16,0.00,6,,87
2011-11-26,58,51,43,49,46,42,93,80,67,30.38,30.34,30.30,10,7,3,21,9,26,0.00,2,,58
2011-11-27,60,53,46,49,47,44,100,84,67,30.35,30.30,30.27,10,6,2,13,3,16,0.00,4,,2
2011-11-28,61,51,41,48,45,40,100,80,60,30.31,30.26,30.21,10,4,0,8,1,10,0.00,3,Fog,59
2011-11-29,66,51,36,46,40,36,92,68,44,30.26,30.21,30.16,10,9,5,14,2,18,0.00,0,,70
2011-11-30,66,51,35,43,33,23,100,61,22,30.24,30.19,30.13,10,8,0,33,12,44,0.00,2,Fog,353